| time (UTC) | temp F | wind direction | speed knots | gust knots | rain 1hr in | rain 24hr in | rain mn in | humidity % | barometer mb |
| 20260508041501 | 44 | 219 | 0.0 | 0.0 | 0.00 | 0.00 | 0.00 | 61 | 1016.4 |
| 20260508041002 | 44 | 222 | 0.0 | 0.0 | 0.00 | 0.00 | 0.00 | 61 | 1016.4 |
| 20260508040600 | 44 | 222 | 0.0 | 0.0 | 0.00 | 0.00 | 0.00 | 61 | 1016.4 |
| 20260508040059 | 44 | 222 | 0.0 | 0.0 | 0.00 | 0.00 | 0.00 | 61 | 1016.4 |
| 20260508035559 | 44 | 222 | 0.0 | 0.0 | 0.00 | 0.00 | 0.00 | 60 | 1016.3 |
| 20260508035059 | 45 | 222 | 0.0 | 0.0 | 0.00 | 0.00 | 0.00 | 60 | 1016.4 |
| 20260508034604 | 45 | 222 | 0.0 | 0.0 | 0.00 | 0.00 | 0.00 | 60 | 1016.4 |
| 20260508034057 | 45 | 222 | 0.0 | 0.0 | 0.00 | 0.00 | 0.00 | 59 | 1016.4 |
| 20260508033557 | 45 | 222 | 0.0 | 0.0 | 0.00 | 0.00 | 0.00 | 59 | 1016.4 |
| 20260508033058 | 45 | 222 | 0.0 | 0.0 | 0.00 | 0.00 | 0.00 | 59 | 1016.4 |
| 20260508032558 | 45 | 222 | 0.0 | 0.0 | 0.00 | 0.00 | 0.00 | 58 | 1016.5 |
| 20260508032057 | 46 | 222 | 0.0 | 0.0 | 0.00 | 0.00 | 0.00 | 58 | 1016.4 |
| 20260508031558 | 46 | 222 | 0.0 | 0.0 | 0.00 | 0.00 | 0.00 | 58 | 1016.5 |
| 20260508031059 | 46 | 222 | 0.0 | 0.0 | 0.00 | 0.00 | 0.00 | 57 | 1016.5 |
| 20260508030557 | 46 | 222 | 0.0 | 0.0 | 0.00 | 0.00 | 0.00 | 56 | 1016.5 |
| 20260508030100 | 47 | 222 | 0.0 | 0.0 | 0.00 | 0.00 | 0.00 | 56 | 1016.5 |
| 20260508025556 | 47 | 232 | 0.0 | 0.0 | 0.00 | 0.00 | 0.00 | 55 | 1016.5 |
| 20260508025058 | 47 | 232 | 0.0 | 0.0 | 0.00 | 0.00 | 0.00 | 55 | 1016.4 |
| 20260508024556 | 47 | 232 | 0.0 | 0.0 | 0.00 | 0.00 | 0.00 | 55 | 1016.4 |
| 20260508024057 | 47 | 232 | 0.0 | 0.0 | 0.00 | 0.00 | 0.00 | 55 | 1016.4 |
| 20260508023555 | 47 | 238 | 0.0 | 0.0 | 0.00 | 0.00 | 0.00 | 54 | 1016.3 |
| 20260508023055 | 48 | 238 | 0.0 | 0.0 | 0.00 | 0.00 | 0.00 | 54 | 1016.3 |
| 20260508022555 | 48 | 238 | 0.0 | 0.0 | 0.00 | 0.00 | 0.00 | 52 | 1016.2 |
| 20260508022055 | 49 | 238 | 0.0 | 0.0 | 0.00 | 0.00 | 0.00 | 51 | 1016.2 |
| 20260508021556 | 49 | 246 | 0.0 | 0.0 | 0.00 | 0.00 | 0.00 | 50 | 1016.1 |
| 20260508021055 | 49 | 246 | 0.0 | 0.9 | 0.00 | 0.00 | 0.00 | 49 | 1016.1 |
| 20260508020557 | 50 | 264 | 0.0 | 0.9 | 0.00 | 0.00 | 0.00 | 50 | 1016.0 |
| 20260508020057 | 51 | 284 | 0.0 | 0.0 | 0.00 | 0.00 | 0.00 | 50 | 1015.9 |
| 20260508015554 | 51 | 286 | 0.0 | 0.0 | 0.00 | 0.00 | 0.00 | 47 | 1015.9 |
| 20260508015054 | 52 | 286 | 0.0 | 0.0 | 0.00 | 0.00 | 0.00 | 47 | 1015.8 |
| 20260508014556 | 52 | 286 | 0.0 | 0.0 | 0.00 | 0.00 | 0.00 | 44 | 1015.7 |
| 20260508014057 | 53 | 286 | 0.0 | 0.0 | 0.00 | 0.00 | 0.00 | 43 | 1015.7 |
| 20260508013553 | 53 | 286 | 0.0 | 0.0 | 0.00 | 0.00 | 0.00 | 42 | 1015.6 |
| 20260508013053 | 53 | 286 | 0.0 | 0.0 | 0.00 | 0.00 | 0.00 | 42 | 1015.6 |
| 20260508012553 | 53 | 286 | 0.0 | 0.0 | 0.00 | 0.00 | 0.00 | 42 | 1015.5 |
| 20260508012053 | 54 | 287 | 0.0 | 0.0 | 0.00 | 0.00 | 0.00 | 41 | 1015.4 |
| 20260508011554 | 54 | 287 | 0.0 | 0.0 | 0.00 | 0.00 | 0.00 | 40 | 1015.4 |
| 20260508011053 | 54 | 286 | 0.0 | 0.0 | 0.00 | 0.00 | 0.00 | 39 | 1015.3 |
| 20260508010654 | 54 | 287 | 0.0 | 0.0 | 0.00 | 0.00 | 0.00 | 38 | 1015.3 |
| 20260508010053 | 54 | 286 | 0.0 | 0.0 | 0.00 | 0.00 | 0.00 | 41 | 1015.1 |
| 20260508005552 | 55 | 295 | 0.0 | 0.0 | 0.00 | 0.00 | 0.00 | 40 | 1015.1 |
| 20260508005053 | 55 | 313 | 0.0 | 0.0 | 0.00 | 0.00 | 0.00 | 39 | 1015.1 |
| 20260508004552 | 56 | 313 | 0.0 | 0.0 | 0.00 | 0.00 | 0.00 | 33 | 1015.1 |
| 20260508004052 | 57 | 313 | 0.0 | 0.0 | 0.00 | 0.00 | 0.00 | 33 | 1015.1 |
| 20260508003551 | 57 | 313 | 0.0 | 0.0 | 0.00 | 0.00 | 0.00 | 33 | 1015.0 |
| 20260508003100 | 58 | 291 | 0.0 | 0.0 | 0.00 | 0.00 | 0.00 | 30 | 1015.0 |
| 20260508002551 | 58 | 292 | 0.0 | 0.0 | 0.00 | 0.00 | 0.00 | 31 | 1014.9 |
| 20260508002051 | 58 | 289 | 0.0 | 0.0 | 0.00 | 0.00 | 0.00 | 31 | 1014.8 |
| 20260508001557 | 59 | 289 | 0.0 | 0.0 | 0.00 | 0.00 | 0.00 | 29 | 1014.8 |
| 20260508001051 | 59 | 286 | 0.0 | 0.0 | 0.00 | 0.00 | 0.00 | 27 | 1014.7 |
| 20260508000553 | 59 | 294 | 0.0 | 0.0 | 0.00 | 0.00 | 0.00 | 29 | 1014.6 |
| 20260508000051 | 59 | 282 | 0.0 | 0.0 | 0.00 | 0.00 | 0.00 | 27 | 1014.7 |
| 20260507235553 | 60 | 291 | 0.0 | 0.0 | 0.00 | 0.00 | 0.00 | 29 | 1014.7 |
| 20260507235050 | 60 | 287 | 0.0 | 0.0 | 0.00 | 0.00 | 0.00 | 28 | 1014.7 |
| 20260507234549 | 60 | 290 | 0.0 | 0.0 | 0.00 | 0.00 | 0.00 | 28 | 1014.6 |
| 20260507234049 | 60 | 290 | 0.0 | 0.0 | 0.00 | 0.00 | 0.00 | 28 | 1014.6 |
| 20260507233549 | 60 | 296 | 0.0 | 0.0 | 0.00 | 0.00 | 0.00 | 26 | 1014.6 |
| 20260507233049 | 61 | 281 | 0.0 | 0.0 | 0.00 | 0.00 | 0.00 | 27 | 1014.6 |
| 20260507232549 | 61 | 288 | 0.0 | 0.0 | 0.00 | 0.00 | 0.00 | 27 | 1014.5 |
| 20260507232047 | 61 | 292 | 0.0 | 0.0 | 0.00 | 0.00 | 0.00 | 26 | 1014.6 |
| 20260507231548 | 61 | 263 | 0.0 | 0.0 | 0.00 | 0.00 | 0.00 | 25 | 1014.6 |
| 20260507231048 | 61 | 289 | 0.0 | 3.5 | 0.00 | 0.00 | 0.00 | 25 | 1014.7 |
| 20260507230548 | 62 | 241 | 0.0 | 3.5 | 0.00 | 0.00 | 0.00 | 25 | 1014.7 |
| 20260507230048 | 62 | 260 | 0.0 | 0.9 | 0.00 | 0.00 | 0.00 | 27 | 1014.7 |
| 20260507225549 | 62 | 316 | 0.0 | 0.0 | 0.00 | 0.00 | 0.00 | 24 | 1014.7 |
| 20260507225047 | 62 | 258 | 0.0 | 0.0 | 0.00 | 0.00 | 0.00 | 24 | 1014.8 |
| 20260507224602 | 62 | 286 | 0.0 | 0.0 | 0.00 | 0.00 | 0.00 | 25 | 1014.8 |
| 20260507224047 | 62 | 305 | 0.0 | 0.0 | 0.00 | 0.00 | 0.00 | 26 | 1014.8 |
| 20260507223547 | 62 | 293 | 0.0 | 0.0 | 0.00 | 0.00 | 0.00 | 23 | 1014.8 |
| 20260507223053 | 62 | 286 | 0.0 | 0.0 | 0.00 | 0.00 | 0.00 | 25 | 1014.9 |
| 20260507222549 | 62 | 355 | 0.0 | 0.0 | 0.00 | 0.00 | 0.00 | 22 | 1014.9 |
| 20260507222045 | 63 | 22 | 0.0 | 0.0 | 0.00 | 0.00 | 0.00 | 22 | 1014.9 |
| 20260507221545 | 63 | 326 | 0.0 | 0.0 | 0.00 | 0.00 | 0.00 | 22 | 1014.8 |
| 20260507221046 | 64 | 343 | 0.0 | 0.0 | 0.00 | 0.00 | 0.00 | 21 | 1014.8 |
| 20260507220546 | 64 | 336 | 0.0 | 0.9 | 0.00 | 0.00 | 0.00 | 23 | 1014.6 |
| 20260507220045 | 62 | 266 | 0.0 | 0.9 | 0.00 | 0.00 | 0.00 | 22 | 1014.6 |
| 20260507215549 | 62 | 302 | 0.0 | 0.0 | 0.00 | 0.00 | 0.00 | 24 | 1014.6 |
| 20260507215045 | 62 | 349 | 0.0 | 0.0 | 0.00 | 0.00 | 0.00 | 23 | 1014.6 |
| 20260507214547 | 62 | 15 | 0.0 | 0.0 | 0.00 | 0.00 | 0.00 | 23 | 1014.5 |
| 20260507214046 | 63 | 344 | 0.0 | 0.9 | 0.00 | 0.00 | 0.00 | 24 | 1014.7 |
| 20260507213543 | 62 | 343 | 0.0 | 0.9 | 0.00 | 0.00 | 0.00 | 23 | 1014.6 |
| 20260507213043 | 62 | 16 | 0.0 | 0.0 | 0.00 | 0.00 | 0.00 | 23 | 1014.7 |
| 20260507212542 | 63 | 355 | 0.0 | 0.0 | 0.00 | 0.00 | 0.00 | 23 | 1014.7 |
| 20260507212045 | 63 | 10 | 0.0 | 0.0 | 0.00 | 0.00 | 0.00 | 25 | 1014.7 |
| 20260507211554 | 62 | 14 | 0.0 | 0.0 | 0.00 | 0.00 | 0.00 | 23 | 1014.8 |
| 20260507211042 | 62 | 5 | 0.0 | 3.5 | 0.00 | 0.00 | 0.00 | 21 | 1014.8 |
| 20260507210542 | 63 | 343 | 0.0 | 3.5 | 0.00 | 0.00 | 0.00 | 22 | 1014.8 |
| 20260507210042 | 64 | 5 | 0.0 | 0.0 | 0.00 | 0.00 | 0.00 | 23 | 1014.8 |
| 20260507205541 | 62 | 313 | 0.0 | 0.0 | 0.00 | 0.00 | 0.00 | 22 | 1014.8 |
| 20260507205040 | 62 | 302 | 0.0 | 0.0 | 0.00 | 0.00 | 0.00 | 26 | 1014.8 |
| 20260507204540 | 61 | 355 | 0.0 | 0.0 | 0.00 | 0.00 | 0.00 | 23 | 1014.8 |
| 20260507204041 | 62 | 341 | 0.0 | 0.0 | 0.00 | 0.00 | 0.00 | 22 | 1014.7 |
| 20260507203539 | 62 | 5 | 0.0 | 0.0 | 0.00 | 0.00 | 0.00 | 24 | 1014.8 |
| 20260507203041 | 61 | 27 | 0.0 | 0.0 | 0.00 | 0.00 | 0.00 | 23 | 1014.8 |
| 20260507202538 | 62 | 9 | 0.0 | 0.0 | 0.00 | 0.00 | 0.00 | 24 | 1014.8 |
| 20260507202038 | 62 | 333 | 0.0 | 0.0 | 0.00 | 0.00 | 0.00 | 25 | 1014.8 |
| 20260507201538 | 62 | 5 | 0.0 | 0.0 | 0.00 | 0.00 | 0.00 | 25 | 1014.9 |
| 20260507201040 | 61 | 289 | 0.0 | 0.0 | 0.00 | 0.00 | 0.00 | 26 | 1014.9 |
| 20260507200537 | 61 | 349 | 0.0 | 0.0 | 0.00 | 0.00 | 0.00 | 22 | 1015.0 |
| 20260507200038 | 61 | 360 | 0.0 | 0.0 | 0.00 | 0.00 | 0.00 | 23 | 1015.0 |
| 20260507195537 | 61 | 344 | 0.0 | 0.0 | 0.00 | 0.00 | 0.00 | 27 | 1015.1 |
| 20260507195036 | 61 | 12 | 0.0 | 0.0 | 0.00 | 0.00 | 0.00 | 23 | 1015.1 |
| 20260507194539 | 61 | 9 | 0.0 | 0.0 | 0.00 | 0.00 | 0.00 | 24 | 1015.1 |
| 20260507194038 | 61 | 5 | 0.0 | 0.0 | 0.00 | 0.00 | 0.00 | 22 | 1015.1 |
| 20260507193535 | 62 | 345 | 0.0 | 0.0 | 0.00 | 0.00 | 0.00 | 24 | 1015.1 |
| 20260507193036 | 63 | 348 | 0.0 | 0.0 | 0.00 | 0.00 | 0.00 | 21 | 1015.2 |
| 20260507192534 | 61 | 336 | 0.0 | 0.0 | 0.00 | 0.00 | 0.00 | 24 | 1015.3 |
| 20260507192133 | 61 | 305 | 0.0 | 0.0 | 0.00 | 0.00 | 0.00 | 22 | 1015.2 |
| 20260507191534 | 61 | 5 | 0.0 | 0.0 | 0.00 | 0.00 | 0.00 | 24 | 1015.3 |
| 20260507191032 | 61 | 21 | 0.0 | 0.0 | 0.00 | 0.00 | 0.00 | 23 | 1015.3 |
| 20260507190532 | 61 | 311 | 0.0 | 0.0 | 0.00 | 0.00 | 0.00 | 25 | 1015.4 |
| 20260507190036 | 60 | 340 | 0.0 | 0.0 | 0.00 | 0.00 | 0.00 | 22 | 1015.5 |
| 20260507185532 | 61 | 9 | 0.0 | 0.0 | 0.00 | 0.00 | 0.00 | 20 | 1015.4 |
| 20260507185032 | 61 | 331 | 0.0 | 0.9 | 0.00 | 0.00 | 0.00 | 22 | 1015.4 |
| 20260507184530 | 60 | 307 | 0.0 | 0.9 | 0.00 | 0.00 | 0.00 | 27 | 1015.4 |
| 20260507184030 | 59 | 360 | 0.0 | 0.0 | 0.00 | 0.00 | 0.00 | 23 | 1015.4 |
| 20260507183529 | 60 | 349 | 0.0 | 0.0 | 0.00 | 0.00 | 0.00 | 21 | 1015.4 |
| 20260507183029 | 60 | 350 | 0.0 | 0.0 | 0.00 | 0.00 | 0.00 | 19 | 1015.4 |
| 20260507182528 | 59 | 298 | 0.0 | 0.0 | 0.00 | 0.00 | 0.00 | 23 | 1015.5 |
| 20260507182029 | 59 | 355 | 0.0 | 0.0 | 0.00 | 0.00 | 0.00 | 21 | 1015.6 |
| 20260507181527 | 59 | 346 | 0.0 | 0.0 | 0.00 | 0.00 | 0.00 | 22 | 1015.6 |
| 20260507181028 | 59 | 343 | 0.0 | 0.0 | 0.00 | 0.00 | 0.00 | 21 | 1015.7 |
| 20260507180527 | 60 | 316 | 0.0 | 0.0 | 0.00 | 0.00 | 0.00 | 27 | 1015.6 |
| 20260507180026 | 59 | 355 | 0.0 | 0.0 | 0.00 | 0.00 | 0.00 | 21 | 1015.6 |
| 20260507175528 | 58 | 17 | 0.0 | 0.0 | 0.00 | 0.00 | 0.00 | 20 | 1015.7 |
| 20260507175026 | 58 | 346 | 0.0 | 0.0 | 0.00 | 0.00 | 0.00 | 22 | 1015.8 |
| 20260507174524 | 58 | 351 | 0.0 | 0.0 | 0.00 | 0.00 | 0.00 | 22 | 1015.8 |
| 20260507174024 | 58 | 351 | 0.0 | 0.0 | 0.00 | 0.00 | 0.00 | 22 | 1016.0 |
| 20260507173524 | 59 | 348 | 0.0 | 0.0 | 0.00 | 0.00 | 0.00 | 23 | 1016.0 |
| 20260507173027 | 59 | 5 | 0.0 | 0.0 | 0.00 | 0.00 | 0.00 | 23 | 1016.0 |
| 20260507172525 | 59 | 323 | 0.0 | 0.0 | 0.00 | 0.00 | 0.00 | 24 | 1016.1 |
| 20260507172024 | 58 | 328 | 0.0 | 2.6 | 0.00 | 0.00 | 0.00 | 24 | 1016.2 |
| 20260507171523 | 59 | 296 | 0.0 | 2.6 | 0.00 | 0.00 | 0.00 | 27 | 1016.2 |
| 20260507171022 | 58 | 290 | 0.0 | 2.6 | 0.00 | 0.00 | 0.00 | 28 | 1016.2 |
| 20260507170522 | 57 | 9 | 0.0 | 0.0 | 0.00 | 0.00 | 0.00 | 24 | 1016.4 |
| 20260507170022 | 57 | 342 | 0.0 | 0.0 | 0.00 | 0.00 | 0.00 | 24 | 1016.5 |
| 20260507165520 | 57 | 323 | 0.0 | 0.0 | 0.00 | 0.00 | 0.00 | 25 | 1016.6 |
| 20260507165023 | 57 | 351 | 0.0 | 0.0 | 0.00 | 0.00 | 0.00 | 28 | 1016.6 |
| 20260507164520 | 57 | 344 | 0.0 | 0.0 | 0.00 | 0.00 | 0.00 | 26 | 1016.7 |
| 20260507164019 | 57 | 345 | 0.0 | 0.0 | 0.00 | 0.00 | 0.00 | 27 | 1016.7 |
| 20260507163520 | 57 | 20 | 0.0 | 0.0 | 0.00 | 0.00 | 0.00 | 30 | 1016.7 |
| 20260507163023 | 56 | 335 | 0.0 | 0.0 | 0.00 | 0.00 | 0.00 | 29 | 1016.8 |
| 20260507162519 | 56 | 5 | 0.0 | 0.0 | 0.00 | 0.00 | 0.00 | 28 | 1016.9 |
| 20260507162023 | 56 | 355 | 0.0 | 0.0 | 0.00 | 0.00 | 0.00 | 30 | 1016.8 |
| 20260507161519 | 57 | 346 | 0.0 | 0.0 | 0.00 | 0.00 | 0.00 | 28 | 1016.9 |
| 20260507161018 | 57 | 340 | 0.0 | 0.0 | 0.00 | 0.00 | 0.00 | 29 | 1016.8 |
| 20260507160518 | 57 | 282 | 0.0 | 0.0 | 0.00 | 0.00 | 0.00 | 32 | 1016.8 |
| 20260507160017 | 57 | 292 | 0.0 | 0.0 | 0.00 | 0.00 | 0.00 | 29 | 1016.8 |
| 20260507155516 | 56 | 317 | 0.0 | 0.0 | 0.00 | 0.00 | 0.00 | 31 | 1016.9 |
| 20260507155015 | 56 | 347 | 0.0 | 0.0 | 0.00 | 0.00 | 0.00 | 31 | 1016.9 |
| 20260507154515 | 56 | 323 | 0.0 | 0.0 | 0.00 | 0.00 | 0.00 | 31 | 1016.9 |
| 20260507154014 | 56 | 340 | 0.0 | 0.0 | 0.00 | 0.00 | 0.00 | 31 | 1017.0 |
| 20260507153513 | 56 | 360 | 0.0 | 0.0 | 0.00 | 0.00 | 0.00 | 31 | 1016.9 |
| 20260507153012 | 56 | 360 | 0.0 | 0.0 | 0.00 | 0.00 | 0.00 | 32 | 1016.9 |
| 20260507152512 | 55 | 331 | 0.0 | 0.0 | 0.00 | 0.00 | 0.00 | 35 | 1016.9 |
| 20260507152011 | 55 | 325 | 0.0 | 0.0 | 0.00 | 0.00 | 0.00 | 34 | 1016.9 |
| 20260507151511 | 55 | 360 | 0.0 | 0.0 | 0.00 | 0.00 | 0.00 | 34 | 1016.8 |
| 20260507151009 | 55 | 5 | 0.0 | 0.9 | 0.00 | 0.00 | 0.00 | 35 | 1016.8 |
| 20260507150513 | 55 | 360 | 0.0 | 0.9 | 0.00 | 0.00 | 0.00 | 34 | 1016.8 |
| 20260507150012 | 54 | 348 | 0.0 | 0.0 | 0.00 | 0.00 | 0.00 | 37 | 1016.8 |
| 20260507145508 | 54 | 23 | 0.0 | 0.0 | 0.00 | 0.00 | 0.00 | 36 | 1016.9 |
| 20260507145008 | 54 | 15 | 0.0 | 0.0 | 0.00 | 0.00 | 0.00 | 36 | 1016.8 |
| 20260507144507 | 54 | 355 | 0.0 | 0.0 | 0.00 | 0.00 | 0.00 | 35 | 1016.8 |
| 20260507144006 | 54 | 355 | 0.0 | 0.0 | 0.00 | 0.00 | 0.00 | 37 | 1016.9 |
| 20260507143504 | 53 | 25 | 0.0 | 0.0 | 0.00 | 0.00 | 0.00 | 38 | 1016.9 |
| 20260507143004 | 53 | 13 | 0.0 | 0.0 | 0.00 | 0.00 | 0.00 | 38 | 1016.9 |
| 20260507142505 | 53 | 360 | 0.0 | 0.0 | 0.00 | 0.00 | 0.00 | 37 | 1016.9 |
| 20260507142004 | 53 | 360 | 0.0 | 0.0 | 0.00 | 0.00 | 0.00 | 36 | 1016.9 |
| 20260507141504 | 53 | 11 | 0.0 | 0.0 | 0.00 | 0.00 | 0.00 | 39 | 1016.9 |
| 20260507141002 | 53 | 17 | 0.0 | 0.0 | 0.00 | 0.00 | 0.00 | 39 | 1016.8 |
| 20260507140502 | 52 | 360 | 0.0 | 0.0 | 0.00 | 0.00 | 0.00 | 37 | 1016.8 |
| 20260507140112 | 52 | 16 | 0.0 | 0.0 | 0.00 | 0.00 | 0.00 | 39 | 1016.7 |
| 20260507135559 | 52 | 19 | 0.0 | 0.0 | 0.00 | 0.00 | 0.00 | 38 | 1016.7 |
| 20260507135103 | 52 | 5 | 0.0 | 0.0 | 0.00 | 0.00 | 0.00 | 40 | 1016.8 |
| 20260507134559 | 51 | 10 | 0.0 | 0.0 | 0.00 | 0.00 | 0.00 | 40 | 1016.8 |
| 20260507134058 | 51 | 26 | 0.0 | 0.0 | 0.00 | 0.00 | 0.00 | 43 | 1017.0 |
| 20260507133557 | 51 | 13 | 0.0 | 0.0 | 0.00 | 0.00 | 0.00 | 45 | 1016.8 |
| 20260507133056 | 51 | 5 | 0.0 | 0.0 | 0.00 | 0.00 | 0.00 | 48 | 1016.7 |
| 20260507132557 | 50 | 355 | 0.0 | 0.0 | 0.00 | 0.00 | 0.00 | 48 | 1016.7 |
| 20260507132056 | 50 | 13 | 0.0 | 0.0 | 0.00 | 0.00 | 0.00 | 49 | 1016.8 |
| 20260507131600 | 50 | 22 | 0.0 | 0.0 | 0.00 | 0.00 | 0.00 | 49 | 1016.8 |
| 20260507131055 | 49 | 9 | 0.0 | 0.0 | 0.00 | 0.00 | 0.00 | 51 | 1016.7 |
| 20260507130554 | 49 | 5 | 0.0 | 0.0 | 0.00 | 0.00 | 0.00 | 53 | 1016.7 |
| 20260507130053 | 48 | 355 | 0.0 | 0.0 | 0.00 | 0.00 | 0.00 | 53 | 1016.7 |
| 20260507125554 | 48 | 10 | 0.0 | 0.0 | 0.00 | 0.00 | 0.00 | 55 | 1016.8 |
| 20260507125053 | 48 | 355 | 0.0 | 0.0 | 0.00 | 0.00 | 0.00 | 55 | 1016.7 |
| 20260507124552 | 47 | 355 | 0.0 | 0.0 | 0.00 | 0.00 | 0.00 | 55 | 1016.7 |
| 20260507124052 | 47 | 355 | 0.0 | 0.0 | 0.00 | 0.00 | 0.00 | 55 | 1016.7 |
| 20260507123552 | 47 | 355 | 0.0 | 0.0 | 0.00 | 0.00 | 0.00 | 56 | 1016.7 |
| 20260507123054 | 46 | 355 | 0.0 | 0.0 | 0.00 | 0.00 | 0.00 | 56 | 1016.7 |
| 20260507122550 | 46 | 355 | 0.0 | 0.0 | 0.00 | 0.00 | 0.00 | 57 | 1016.6 |
| 20260507122051 | 46 | 355 | 0.0 | 0.0 | 0.00 | 0.00 | 0.00 | 57 | 1016.6 |
| 20260507121551 | 46 | 355 | 0.0 | 0.0 | 0.00 | 0.00 | 0.00 | 57 | 1016.7 |
| 20260507121051 | 46 | 355 | 0.0 | 0.0 | 0.00 | 0.00 | 0.00 | 57 | 1016.7 |
| 20260507120550 | 45 | 355 | 0.0 | 0.0 | 0.00 | 0.00 | 0.00 | 57 | 1016.7 |
| 20260507120051 | 45 | 355 | 0.0 | 0.0 | 0.00 | 0.00 | 0.00 | 58 | 1016.7 |
| 20260507115551 | 45 | 355 | 0.0 | 0.0 | 0.00 | 0.00 | 0.00 | 58 | 1016.8 |
| 20260507115050 | 45 | 355 | 0.0 | 0.0 | 0.00 | 0.00 | 0.00 | 59 | 1016.8 |
| 20260507114550 | 44 | 355 | 0.0 | 0.0 | 0.00 | 0.00 | 0.00 | 59 | 1016.8 |
| 20260507114050 | 44 | 355 | 0.0 | 0.0 | 0.00 | 0.00 | 0.00 | 59 | 1016.8 |
| 20260507113550 | 44 | 355 | 0.0 | 0.0 | 0.00 | 0.00 | 0.00 | 59 | 1016.8 |
| 20260507113049 | 44 | 355 | 0.0 | 0.0 | 0.00 | 0.00 | 0.00 | 59 | 1016.7 |
| 20260507112549 | 44 | 355 | 0.0 | 0.0 | 0.00 | 0.00 | 0.00 | 59 | 1016.7 |
| 20260507112049 | 44 | 355 | 0.0 | 0.0 | 0.00 | 0.00 | 0.00 | 60 | 1016.7 |
| 20260507111548 | 43 | 355 | 0.0 | 0.0 | 0.00 | 0.00 | 0.00 | 60 | 1016.7 |
| 20260507111048 | 43 | 355 | 0.0 | 0.0 | 0.00 | 0.00 | 0.00 | 60 | 1016.7 |
| 20260507110546 | 43 | 355 | 0.0 | 0.0 | 0.00 | 0.00 | 0.00 | 61 | 1016.6 |
| 20260507110050 | 43 | 355 | 0.0 | 0.0 | 0.00 | 0.00 | 0.00 | 61 | 1016.6 |
| 20260507105545 | 43 | 355 | 0.0 | 0.0 | 0.00 | 0.00 | 0.00 | 61 | 1016.6 |
| 20260507105045 | 43 | 355 | 0.0 | 0.0 | 0.00 | 0.00 | 0.00 | 61 | 1016.5 |
| 20260507104545 | 43 | 355 | 0.0 | 0.0 | 0.00 | 0.00 | 0.00 | 61 | 1016.5 |
| 20260507104044 | 43 | 355 | 0.0 | 0.0 | 0.00 | 0.00 | 0.00 | 62 | 1016.4 |
| 20260507103541 | 44 | 355 | 0.0 | 0.0 | 0.00 | 0.00 | 0.00 | 62 | 1016.3 |
| 20260507103042 | 44 | 355 | 0.0 | 0.0 | 0.00 | 0.00 | 0.00 | 62 | 1016.2 |
| 20260507102541 | 44 | 355 | 0.0 | 0.0 | 0.00 | 0.00 | 0.00 | 63 | 1016.1 |
| 20260507102040 | 44 | 355 | 0.0 | 0.0 | 0.00 | 0.00 | 0.00 | 63 | 1016.2 |
| 20260507101557 | 44 | 355 | 0.0 | 0.0 | 0.00 | 0.00 | 0.00 | 64 | 1016.1 |
| 20260507101039 | 44 | 355 | 0.0 | 0.0 | 0.00 | 0.00 | 0.00 | 64 | 1016.1 |
| 20260507100539 | 43 | 355 | 0.0 | 0.0 | 0.00 | 0.00 | 0.00 | 64 | 1015.9 |
| 20260507100039 | 43 | 355 | 0.0 | 0.0 | 0.00 | 0.00 | 0.00 | 64 | 1016.0 |
| 20260507095539 | 43 | 355 | 0.0 | 0.0 | 0.00 | 0.01 | 0.00 | 65 | 1016.0 |
| 20260507095038 | 43 | 355 | 0.0 | 0.0 | 0.00 | 0.01 | 0.00 | 65 | 1016.0 |
| 20260507094543 | 43 | 355 | 0.0 | 0.0 | 0.00 | 0.01 | 0.00 | 64 | 1015.9 |
| 20260507094041 | 43 | 355 | 0.0 | 0.0 | 0.00 | 0.01 | 0.00 | 64 | 1015.9 |
| 20260507093537 | 43 | 355 | 0.0 | 0.0 | 0.00 | 0.01 | 0.00 | 64 | 1015.8 |
| 20260507093036 | 44 | 355 | 0.0 | 0.0 | 0.00 | 0.01 | 0.00 | 64 | 1015.8 |
| 20260507092536 | 44 | 355 | 0.0 | 0.0 | 0.00 | 0.01 | 0.00 | 64 | 1015.8 |
| 20260507092034 | 44 | 355 | 0.0 | 0.0 | 0.00 | 0.01 | 0.00 | 64 | 1015.8 |
| 20260507091551 | 44 | 355 | 0.0 | 0.0 | 0.00 | 0.01 | 0.00 | 64 | 1015.7 |
| 20260507091033 | 44 | 355 | 0.0 | 0.0 | 0.00 | 0.01 | 0.00 | 64 | 1015.7 |
| 20260507090533 | 44 | 355 | 0.0 | 0.0 | 0.00 | 0.01 | 0.00 | 64 | 1015.7 |
| 20260507090033 | 44 | 355 | 0.0 | 0.0 | 0.00 | 0.01 | 0.00 | 64 | 1015.6 |
| 20260507085532 | 45 | 355 | 0.0 | 0.0 | 0.00 | 0.05 | 0.00 | 63 | 1015.6 |
| 20260507085032 | 45 | 355 | 0.0 | 0.0 | 0.00 | 0.05 | 0.00 | 63 | 1015.6 |
| 20260507084530 | 45 | 355 | 0.0 | 0.0 | 0.00 | 0.05 | 0.00 | 63 | 1015.5 |
| 20260507084030 | 45 | 355 | 0.0 | 0.0 | 0.00 | 0.05 | 0.00 | 63 | 1015.6 |
| 20260507083530 | 45 | 355 | 0.0 | 0.0 | 0.00 | 0.05 | 0.00 | 63 | 1015.4 |
| 20260507083031 | 45 | 355 | 0.0 | 0.0 | 0.00 | 0.05 | 0.00 | 63 | 1015.4 |
| 20260507082530 | 45 | 355 | 0.0 | 0.0 | 0.00 | 0.05 | 0.00 | 63 | 1015.4 |
| 20260507082029 | 45 | 355 | 0.0 | 0.0 | 0.00 | 0.05 | 0.00 | 63 | 1015.4 |
| 20260507081540 | 45 | 355 | 0.0 | 0.0 | 0.00 | 0.05 | 0.00 | 63 | 1015.4 |
| 20260507081029 | 46 | 355 | 0.0 | 0.0 | 0.00 | 0.05 | 0.00 | 63 | 1015.4 |
| 20260507080527 | 46 | 355 | 0.0 | 0.0 | 0.00 | 0.05 | 0.00 | 62 | 1015.4 |
| 20260507080028 | 46 | 355 | 0.0 | 0.0 | 0.00 | 0.05 | 0.00 | 63 | 1015.5 |
| 20260507075527 | 46 | 355 | 0.0 | 0.0 | 0.00 | 0.05 | 0.00 | 63 | 1015.5 |
| 20260507075027 | 46 | 355 | 0.0 | 0.0 | 0.00 | 0.05 | 0.00 | 63 | 1015.4 |
| 20260507074530 | 46 | 355 | 0.0 | 0.0 | 0.00 | 0.05 | 0.00 | 63 | 1015.4 |
| 20260507074025 | 46 | 355 | 0.0 | 0.0 | 0.00 | 0.05 | 0.00 | 63 | 1015.3 |
| 20260507073525 | 46 | 355 | 0.0 | 0.0 | 0.00 | 0.05 | 0.00 | 63 | 1015.1 |
| 20260507073024 | 46 | 355 | 0.0 | 0.0 | 0.00 | 0.05 | 0.00 | 62 | 1015.2 |
| 20260507072524 | 47 | 355 | 0.0 | 0.0 | 0.00 | 0.05 | 0.00 | 62 | 1015.2 |
| 20260507072025 | 47 | 355 | 0.0 | 0.0 | 0.00 | 0.05 | 0.00 | 63 | 1015.0 |
| 20260507071523 | 47 | 355 | 0.0 | 0.0 | 0.00 | 0.05 | 0.00 | 63 | 1015.2 |
| 20260507071022 | 47 | 355 | 0.0 | 0.0 | 0.00 | 0.05 | 0.00 | 63 | 1015.2 |
| 20260507070522 | 47 | 355 | 0.0 | 0.0 | 0.00 | 0.05 | 0.00 | 63 | 1015.2 |
| 20260507070022 | 47 | 355 | 0.0 | 0.0 | 0.00 | 0.05 | 0.00 | 63 | 1015.3 |
| 20260507065519 | 48 | 355 | 0.0 | 0.0 | 0.00 | 0.12 | 0.00 | 63 | 1015.4 |
| 20260507065019 | 48 | 355 | 0.0 | 0.0 | 0.00 | 0.12 | 0.00 | 63 | 1015.3 |
| 20260507064519 | 48 | 355 | 0.0 | 0.0 | 0.00 | 0.12 | 0.00 | 62 | 1015.4 |
| 20260507064018 | 48 | 355 | 0.0 | 0.0 | 0.00 | 0.12 | 0.00 | 62 | 1015.1 |
| 20260507063518 | 49 | 355 | 0.0 | 0.0 | 0.00 | 0.12 | 0.00 | 62 | 1015.3 |
| 20260507063016 | 49 | 355 | 0.0 | 0.0 | 0.00 | 0.12 | 0.00 | 62 | 1015.4 |
| 20260507062517 | 49 | 355 | 0.0 | 0.0 | 0.00 | 0.12 | 0.00 | 62 | 1015.5 |
| 20260507062015 | 49 | 355 | 0.0 | 0.0 | 0.00 | 0.12 | 0.00 | 62 | 1015.4 |
| 20260507061528 | 49 | 355 | 0.0 | 0.0 | 0.00 | 0.12 | 0.00 | 61 | 1015.5 |
| 20260507061014 | 49 | 355 | 0.0 | 0.0 | 0.00 | 0.12 | 0.00 | 61 | 1015.3 |
| 20260507060513 | 49 | 355 | 0.0 | 0.0 | 0.00 | 0.12 | 0.00 | 60 | 1015.4 |
| 20260507060012 | 50 | 355 | 0.0 | 0.0 | 0.00 | 0.12 | 0.00 | 60 | 1015.2 |
| 20260507055512 | 50 | 355 | 0.0 | 0.0 | 0.00 | 0.15 | 0.00 | 60 | 1015.5 |
| 20260507055012 | 50 | 355 | 0.0 | 0.0 | 0.00 | 0.15 | 0.00 | 59 | 1015.5 |
| 20260507054511 | 50 | 355 | 0.0 | 0.0 | 0.00 | 0.15 | 0.00 | 59 | 1015.7 |
| 20260507054011 | 50 | 355 | 0.0 | 0.0 | 0.00 | 0.15 | 0.00 | 59 | 1015.5 |
| 20260507053511 | 50 | 355 | 0.0 | 0.0 | 0.00 | 0.15 | 0.00 | 59 | 1015.5 |
| 20260507053015 | 50 | 355 | 0.0 | 0.0 | 0.00 | 0.15 | 0.00 | 59 | 1015.5 |
| 20260507052512 | 50 | 355 | 0.0 | 0.0 | 0.00 | 0.15 | 0.00 | 59 | 1015.6 |
| 20260507052010 | 50 | 355 | 0.0 | 0.0 | 0.00 | 0.15 | 0.00 | 59 | 1015.5 |
| 20260507051510 | 50 | 355 | 0.0 | 0.0 | 0.00 | 0.15 | 0.00 | 59 | 1015.4 |
| 20260507051010 | 50 | 355 | 0.0 | 0.0 | 0.00 | 0.15 | 0.00 | 59 | 1015.4 |
| 20260507050509 | 50 | 355 | 0.0 | 0.0 | 0.00 | 0.15 | 0.00 | 59 | 1015.5 |
| 20260507050018 | 50 | 355 | 0.0 | 0.0 | 0.00 | 0.15 | 0.00 | 59 | 1015.6 |
| 20260507045508 | 50 | 355 | 0.0 | 0.0 | 0.00 | 0.26 | 0.00 | 59 | 1015.5 |
| 20260507045007 | 51 | 355 | 0.0 | 0.0 | 0.00 | 0.26 | 0.00 | 59 | 1015.4 |
| 20260507044513 | 51 | 355 | 0.0 | 0.0 | 0.00 | 0.26 | 0.00 | 60 | 1015.2 |
| 20260507044004 | 51 | 355 | 0.0 | 0.0 | 0.00 | 0.26 | 0.00 | 59 | 1015.1 |
| 20260507043504 | 51 | 355 | 0.0 | 0.0 | 0.00 | 0.26 | 0.00 | 59 | 1015.0 |
| 20260507043003 | 51 | 355 | 0.0 | 0.0 | 0.00 | 0.26 | 0.00 | 58 | 1015.0 |
| 20260507042502 | 52 | 355 | 0.0 | 0.0 | 0.00 | 0.26 | 0.00 | 57 | 1015.0 |
| 20260507042002 | 52 | 355 | 0.0 | 0.0 | 0.00 | 0.26 | 0.00 | 57 | 1015.1 |